owner,sensor,date,latitude,longitude,air_temperature,qcFlag 
DISL,ioos:station:DISL:DISL:1,2019-09-01T00:10:00Z,30.2513,-88.0778,28.76,11111222 
DISL,ioos:station:DISL:DISL:1,2019-09-01T01:10:00Z,30.2513,-88.0778,28.91,11111222 
DISL,ioos:station:DISL:DISL:1,2019-09-01T02:10:00Z,30.2513,-88.0778,28.69,11111222 
DISL,ioos:station:DISL:DISL:1,2019-09-01T03:10:00Z,30.2513,-88.0778,28.48,11111222 
DISL,ioos:station:DISL:DISL:1,2019-09-01T04:10:00Z,30.2513,-88.0778,28.21,11111222 
DISL,ioos:station:DISL:DISL:1,2019-09-01T05:10:00Z,30.2513,-88.0778,27.87,11111222 
DISL,ioos:station:DISL:DISL:1,2019-09-01T06:10:00Z,30.2513,-88.0778,27.11,11111222 
DISL,ioos:station:DISL:DISL:1,2019-09-01T07:10:00Z,30.2513,-88.0778,26.87,11111222 
DISL,ioos:station:DISL:DISL:1,2019-09-01T08:10:00Z,30.2513,-88.0778,26.98,11111222 
DISL,ioos:station:DISL:DISL:1,2019-09-01T09:10:00Z,30.2513,-88.0778,26.46,11111222 
DISL,ioos:station:DISL:DISL:1,2019-09-01T10:10:00Z,30.2513,-88.0778,26.59,11111222 
DISL,ioos:station:DISL:DISL:1,2019-09-01T11:10:00Z,30.2513,-88.0778,26.21,11111222 
DISL,ioos:station:DISL:DISL:1,2019-09-01T12:10:00Z,30.2513,-88.0778,26.11,11111222 
DISL,ioos:station:DISL:DISL:1,2019-09-01T13:10:00Z,30.2513,-88.0778,26.07,11111222 
DISL,ioos:station:DISL:DISL:1,2019-09-01T14:10:00Z,30.2513,-88.0778,25.97,11111222 
DISL,ioos:station:DISL:DISL:1,2019-09-01T15:10:00Z,30.2513,-88.0778,26.56,11111222 
DISL,ioos:station:DISL:DISL:1,2019-09-01T16:10:00Z,30.2513,-88.0778,27.25,11111222 
DISL,ioos:station:DISL:DISL:1,2019-09-01T17:10:00Z,30.2513,-88.0778,27.09,11111222 
DISL,ioos:station:DISL:DISL:1,2019-09-01T18:10:00Z,30.2513,-88.0778,27.94,11111222 
DISL,ioos:station:DISL:DISL:1,2019-09-01T19:10:00Z,30.2513,-88.0778,28.2,11111222 
DISL,ioos:station:DISL:DISL:1,2019-09-01T20:10:00Z,30.2513,-88.0778,28.08,11111222 
DISL,ioos:station:DISL:DISL:1,2019-09-01T21:10:00Z,30.2513,-88.0778,28.73,11111222 
DISL,ioos:station:DISL:DISL:1,2019-09-01T22:10:00Z,30.2513,-88.0778,28.29,11111222 
DISL,ioos:station:DISL:DISL:1,2019-09-01T23:10:00Z,30.2513,-88.0778,28.75,11111222 
DISL,ioos:station:DISL:DISL:1,2019-09-02T00:10:00Z,30.2513,-88.0778,27.69,11111222 
DISL,ioos:station:DISL:DISL:1,2019-09-02T01:10:00Z,30.2513,-88.0778,28.21,11111222 
DISL,ioos:station:DISL:DISL:1,2019-09-02T02:10:00Z,30.2513,-88.0778,28.41,11111222 
DISL,ioos:station:DISL:DISL:1,2019-09-02T03:10:00Z,30.2513,-88.0778,28.38,11111222 
DISL,ioos:station:DISL:DISL:1,2019-09-02T04:10:00Z,30.2513,-88.0778,28.04,11111222 
DISL,ioos:station:DISL:DISL:1,2019-09-02T05:10:00Z,30.2513,-88.0778,27.73,11111222 
DISL,ioos:station:DISL:DISL:1,2019-09-02T06:10:00Z,30.2513,-88.0778,27.11,11111222 
DISL,ioos:station:DISL:DISL:1,2019-09-02T07:10:00Z,30.2513,-88.0778,26.91,11111222 
DISL,ioos:station:DISL:DISL:1,2019-09-02T08:10:00Z,30.2513,-88.0778,26.95,11111222 
DISL,ioos:station:DISL:DISL:1,2019-09-02T09:10:00Z,30.2513,-88.0778,26.82,11111222 
DISL,ioos:station:DISL:DISL:1,2019-09-02T10:10:00Z,30.2513,-88.0778,26.59,11111222 
DISL,ioos:station:DISL:DISL:1,2019-09-02T11:10:00Z,30.2513,-88.0778,25.97,11111222 
DISL,ioos:station:DISL:DISL:1,2019-09-02T12:10:00Z,30.2513,-88.0778,25.9,11111222 
DISL,ioos:station:DISL:DISL:1,2019-09-02T13:10:00Z,30.2513,-88.0778,26.07,11111222 
DISL,ioos:station:DISL:DISL:1,2019-09-02T16:10:00Z,30.2513,-88.0778,27.23,11111222 
DISL,ioos:station:DISL:DISL:1,2019-09-02T17:10:00Z,30.2513,-88.0778,28.08,11111222 
DISL,ioos:station:DISL:DISL:1,2019-09-02T18:10:00Z,30.2513,-88.0778,28.57,11111222 
DISL,ioos:station:DISL:DISL:1,2019-09-02T19:10:00Z,30.2513,-88.0778,29.56,11111222 
DISL,ioos:station:DISL:DISL:1,2019-09-02T20:10:00Z,30.2513,-88.0778,29.61,11111222 
DISL,ioos:station:DISL:DISL:1,2019-09-02T21:10:00Z,30.2513,-88.0778,29.47,11111222 
DISL,ioos:station:DISL:DISL:1,2019-09-02T22:10:00Z,30.2513,-88.0778,29.35,11111222 
DISL,ioos:station:DISL:DISL:1,2019-09-02T23:10:00Z,30.2513,-88.0778,29.78,11111222 
DISL,ioos:station:DISL:DISL:1,2019-09-03T00:10:00Z,30.2513,-88.0778,30.62,11111222 
DISL,ioos:station:DISL:DISL:1,2019-09-03T01:10:00Z,30.2513,-88.0778,30.44,11111222 
DISL,ioos:station:DISL:DISL:1,2019-09-03T02:10:00Z,30.2513,-88.0778,29.93,11111222 
DISL,ioos:station:DISL:DISL:1,2019-09-03T03:10:00Z,30.2513,-88.0778,29.76,11111222 
DISL,ioos:station:DISL:DISL:1,2019-09-03T04:10:00Z,30.2513,-88.0778,29.52,11111222 
DISL,ioos:station:DISL:DISL:1,2019-09-03T05:10:00Z,30.2513,-88.0778,29.42,11111222 
DISL,ioos:station:DISL:DISL:1,2019-09-03T06:10:00Z,30.2513,-88.0778,28.95,11111222 
DISL,ioos:station:DISL:DISL:1,2019-09-03T07:10:00Z,30.2513,-88.0778,28.79,11111222 
DISL,ioos:station:DISL:DISL:1,2019-09-03T08:10:00Z,30.2513,-88.0778,28.58,11111222 
DISL,ioos:station:DISL:DISL:1,2019-09-03T09:10:00Z,30.2513,-88.0778,28.31,11111222 
DISL,ioos:station:DISL:DISL:1,2019-09-03T10:10:00Z,30.2513,-88.0778,27.8,11111222 
DISL,ioos:station:DISL:DISL:1,2019-09-03T11:10:00Z,30.2513,-88.0778,27.63,11111222 
DISL,ioos:station:DISL:DISL:1,2019-09-03T12:10:00Z,30.2513,-88.0778,27.8,11111222 
DISL,ioos:station:DISL:DISL:1,2019-09-03T13:10:00Z,30.2513,-88.0778,27.76,11111222 
DISL,ioos:station:DISL:DISL:1,2019-09-03T14:10:00Z,30.2513,-88.0778,28.15,11111222 
DISL,ioos:station:DISL:DISL:1,2019-09-03T15:10:00Z,30.2513,-88.0778,28.13,11111222 
DISL,ioos:station:DISL:DISL:1,2019-09-03T16:10:00Z,30.2513,-88.0778,29.08,11111222 
DISL,ioos:station:DISL:DISL:1,2019-09-03T17:10:00Z,30.2513,-88.0778,29.15,11111222 
DISL,ioos:station:DISL:DISL:1,2019-09-03T18:11:00Z,30.2513,-88.0778,29.63,11111222 
DISL,ioos:station:DISL:DISL:1,2019-09-03T19:11:00Z,30.2513,-88.0778,30.19,11111222 
DISL,ioos:station:DISL:DISL:1,2019-09-03T20:11:00Z,30.2513,-88.0778,30.77,11111222 
DISL,ioos:station:DISL:DISL:1,2019-09-03T21:11:00Z,30.2513,-88.0778,31.6,11111222 
DISL,ioos:station:DISL:DISL:1,2019-09-03T22:11:00Z,30.2513,-88.0778,31.99,11111222 
DISL,ioos:station:DISL:DISL:1,2019-09-03T23:11:00Z,30.2513,-88.0778,31.86,11111222 
DISL,ioos:station:DISL:DISL:1,2019-09-04T00:11:00Z,30.2513,-88.0778,29.89,11111222 
DISL,ioos:station:DISL:DISL:1,2019-09-04T01:11:00Z,30.2513,-88.0778,29.48,11111222 
DISL,ioos:station:DISL:DISL:1,2019-09-04T02:11:00Z,30.2513,-88.0778,29.29,11111222 
DISL,ioos:station:DISL:DISL:1,2019-09-04T03:11:00Z,30.2513,-88.0778,30.6,11111222 
DISL,ioos:station:DISL:DISL:1,2019-09-04T04:11:00Z,30.2513,-88.0778,30.44,11111222 
DISL,ioos:station:DISL:DISL:1,2019-09-04T05:11:00Z,30.2513,-88.0778,29.9,11111222 
DISL,ioos:station:DISL:DISL:1,2019-09-04T06:11:00Z,30.2513,-88.0778,30.18,11111222 
DISL,ioos:station:DISL:DISL:1,2019-09-04T07:11:00Z,30.2513,-88.0778,29.69,11111222 
DISL,ioos:station:DISL:DISL:1,2019-09-04T08:11:00Z,30.2513,-88.0778,29.53,11111222 
DISL,ioos:station:DISL:DISL:1,2019-09-04T09:11:00Z,30.2513,-88.0778,28.98,11111222 
DISL,ioos:station:DISL:DISL:1,2019-09-04T10:11:00Z,30.2513,-88.0778,28.85,11111222 
DISL,ioos:station:DISL:DISL:1,2019-09-04T11:11:00Z,30.2513,-88.0778,28.72,11111222 
DISL,ioos:station:DISL:DISL:1,2019-09-04T12:11:00Z,30.2513,-88.0778,28.79,11111222 
DISL,ioos:station:DISL:DISL:1,2019-09-04T13:11:00Z,30.2513,-88.0778,28.9,11111222 
DISL,ioos:station:DISL:DISL:1,2019-09-04T14:11:00Z,30.2513,-88.0778,28.41,11111222 
DISL,ioos:station:DISL:DISL:1,2019-09-04T15:11:00Z,30.2513,-88.0778,28.23,11111222 
DISL,ioos:station:DISL:DISL:1,2019-09-04T16:11:00Z,30.2513,-88.0778,28.71,11111222 
DISL,ioos:station:DISL:DISL:1,2019-09-04T17:11:00Z,30.2513,-88.0778,29.6,11111222 
DISL,ioos:station:DISL:DISL:1,2019-09-04T18:11:00Z,30.2513,-88.0778,30.87,11111222 
DISL,ioos:station:DISL:DISL:1,2019-09-04T19:11:00Z,30.2513,-88.0778,31.84,11111222 
DISL,ioos:station:DISL:DISL:1,2019-09-04T20:11:00Z,30.2513,-88.0778,32.22,11111222 
DISL,ioos:station:DISL:DISL:1,2019-09-04T21:11:00Z,30.2513,-88.0778,33.07,11111222 
DISL,ioos:station:DISL:DISL:1,2019-09-04T22:11:00Z,30.2513,-88.0778,33.22,11111222 
DISL,ioos:station:DISL:DISL:1,2019-09-04T23:11:00Z,30.2513,-88.0778,32.01,11111222 
DISL,ioos:station:DISL:DISL:1,2019-09-04T23:41:00Z,30.2513,-88.0778,31.47,11111222 
DISL,ioos:station:DISL:DISL:1,2019-09-05T01:11:00Z,30.2513,-88.0778,30.5,11111222 
DISL,ioos:station:DISL:DISL:1,2019-09-05T01:41:00Z,30.2513,-88.0778,30.41,11111222 
DISL,ioos:station:DISL:DISL:1,2019-09-05T03:11:00Z,30.2513,-88.0778,30.31,11111222 
DISL,ioos:station:DISL:DISL:1,2019-09-05T03:41:00Z,30.2513,-88.0778,30.24,11111222 
DISL,ioos:station:DISL:DISL:1,2019-09-05T04:41:00Z,30.2513,-88.0778,30.61,11111222 
DISL,ioos:station:DISL:DISL:1,2019-09-05T05:41:00Z,30.2513,-88.0778,29.62,11111222 
DISL,ioos:station:DISL:DISL:1,2019-09-05T06:41:00Z,30.2513,-88.0778,29.02,11111222 
DISL,ioos:station:DISL:DISL:1,2019-09-05T08:11:00Z,30.2513,-88.0778,28.89,11111222 
DISL,ioos:station:DISL:DISL:1,2019-09-05T09:11:00Z,30.2513,-88.0778,28.72,11111222 
DISL,ioos:station:DISL:DISL:1,2019-09-05T09:41:00Z,30.2513,-88.0778,28.82,11111222 
DISL,ioos:station:DISL:DISL:1,2019-09-05T11:11:00Z,30.2513,-88.0778,28.52,11111222 
DISL,ioos:station:DISL:DISL:1,2019-09-05T12:11:00Z,30.2513,-88.0778,28.17,11111222 
DISL,ioos:station:DISL:DISL:1,2019-09-05T13:11:00Z,30.2513,-88.0778,28.13,11111222 
DISL,ioos:station:DISL:DISL:1,2019-09-05T14:11:00Z,30.2513,-88.0778,28.48,11111222 
DISL,ioos:station:DISL:DISL:1,2019-09-05T15:11:00Z,30.2513,-88.0778,29.17,11111222 
DISL,ioos:station:DISL:DISL:1,2019-09-05T16:11:00Z,30.2513,-88.0778,29.68,11111222 
DISL,ioos:station:DISL:DISL:1,2019-09-05T17:11:00Z,30.2513,-88.0778,29.87,11111222 
DISL,ioos:station:DISL:DISL:1,2019-09-05T18:11:00Z,30.2513,-88.0778,31.4,11111222 
DISL,ioos:station:DISL:DISL:1,2019-09-05T19:11:00Z,30.2513,-88.0778,32.46,11111222 
DISL,ioos:station:DISL:DISL:1,2019-09-05T20:11:00Z,30.2513,-88.0778,32.01,11111222 
DISL,ioos:station:DISL:DISL:1,2019-09-05T21:11:00Z,30.2513,-88.0778,31.84,11111222 
DISL,ioos:station:DISL:DISL:1,2019-09-05T22:11:00Z,30.2513,-88.0778,31.54,11111222 
DISL,ioos:station:DISL:DISL:1,2019-09-05T23:11:00Z,30.2513,-88.0778,31.46,11111222 
DISL,ioos:station:DISL:DISL:1,2019-09-05T23:41:00Z,30.2513,-88.0778,31.18,11111222 
DISL,ioos:station:DISL:DISL:1,2019-09-06T00:41:00Z,30.2513,-88.0778,31.24,11111222 
DISL,ioos:station:DISL:DISL:1,2019-09-06T01:41:00Z,30.2513,-88.0778,31.72,11111222 
DISL,ioos:station:DISL:DISL:1,2019-09-06T02:41:00Z,30.2513,-88.0778,31.07,11111222 
DISL,ioos:station:DISL:DISL:1,2019-09-06T03:41:00Z,30.2513,-88.0778,30.82,11111222 
DISL,ioos:station:DISL:DISL:1,2019-09-06T04:41:00Z,30.2513,-88.0778,30.55,11111222 
DISL,ioos:station:DISL:DISL:1,2019-09-06T08:41:00Z,30.2513,-88.0778,28.54,11111222 
DISL,ioos:station:DISL:DISL:1,2019-09-06T09:41:00Z,30.2513,-88.0778,29.03,11111222 
DISL,ioos:station:DISL:DISL:1,2019-09-06T11:11:00Z,30.2513,-88.0778,27.69,11111222 
DISL,ioos:station:DISL:DISL:1,2019-09-06T12:11:00Z,30.2513,-88.0778,26.97,11111222 
DISL,ioos:station:DISL:DISL:1,2019-09-06T13:11:00Z,30.2513,-88.0778,26.63,11111222 
DISL,ioos:station:DISL:DISL:1,2019-09-06T14:11:00Z,30.2513,-88.0778,26.83,11111222 
DISL,ioos:station:DISL:DISL:1,2019-09-06T15:11:00Z,30.2513,-88.0778,26.82,11111222 
DISL,ioos:station:DISL:DISL:1,2019-09-06T16:11:00Z,30.2513,-88.0778,27.33,11111222 
DISL,ioos:station:DISL:DISL:1,2019-09-06T17:11:00Z,30.2513,-88.0778,27.94,11111222 
DISL,ioos:station:DISL:DISL:1,2019-09-06T18:11:00Z,30.2513,-88.0778,28.55,11111222 
DISL,ioos:station:DISL:DISL:1,2019-09-06T19:11:00Z,30.2513,-88.0778,29.17,11111222 
DISL,ioos:station:DISL:DISL:1,2019-09-06T20:11:00Z,30.2513,-88.0778,30.41,11111222 
DISL,ioos:station:DISL:DISL:1,2019-09-06T21:11:00Z,30.2513,-88.0778,31.53,11111222 
DISL,ioos:station:DISL:DISL:1,2019-09-06T22:11:00Z,30.2513,-88.0778,31.94,11111222 
DISL,ioos:station:DISL:DISL:1,2019-09-06T23:11:00Z,30.2513,-88.0778,31.76,11111222 
DISL,ioos:station:DISL:DISL:1,2019-09-06T23:41:00Z,30.2513,-88.0778,31.9,11111222 
DISL,ioos:station:DISL:DISL:1,2019-09-07T01:11:00Z,30.2513,-88.0778,31.17,11111222 
DISL,ioos:station:DISL:DISL:1,2019-09-07T01:41:00Z,30.2513,-88.0778,31.09,11111222 
DISL,ioos:station:DISL:DISL:1,2019-09-07T02:41:00Z,30.2513,-88.0778,30.89,11111222 
DISL,ioos:station:DISL:DISL:1,2019-09-07T03:41:00Z,30.2513,-88.0778,30.24,11111222 
DISL,ioos:station:DISL:DISL:1,2019-09-07T04:41:00Z,30.2513,-88.0778,30.17,11111222 
DISL,ioos:station:DISL:DISL:1,2019-09-07T05:41:00Z,30.2513,-88.0778,29.66,11111222 
DISL,ioos:station:DISL:DISL:1,2019-09-07T06:41:00Z,30.2513,-88.0778,29.49,11111222 
DISL,ioos:station:DISL:DISL:1,2019-09-07T07:41:00Z,30.2513,-88.0778,28.98,11111222 
DISL,ioos:station:DISL:DISL:1,2019-09-07T08:41:00Z,30.2513,-88.0778,29.17,11111222 
DISL,ioos:station:DISL:DISL:1,2019-09-07T09:41:00Z,30.2513,-88.0778,28.55,11111222 
DISL,ioos:station:DISL:DISL:1,2019-09-07T10:41:00Z,30.2513,-88.0778,28.31,11111222 
DISL,ioos:station:DISL:DISL:1,2019-09-07T11:41:00Z,30.2513,-88.0778,28.28,11111222 
DISL,ioos:station:DISL:DISL:1,2019-09-07T12:41:00Z,30.2513,-88.0778,28.37,11111222 
DISL,ioos:station:DISL:DISL:1,2019-09-07T14:11:00Z,30.2513,-88.0778,29.02,11111222 
DISL,ioos:station:DISL:DISL:1,2019-09-07T15:11:00Z,30.2513,-88.0778,29.12,11111222 
DISL,ioos:station:DISL:DISL:1,2019-09-07T16:11:00Z,30.2513,-88.0778,29.53,11111222 
DISL,ioos:station:DISL:DISL:1,2019-09-07T17:11:00Z,30.2513,-88.0778,29.98,11111222 
DISL,ioos:station:DISL:DISL:1,2019-09-07T18:11:00Z,30.2513,-88.0778,31.09,11111222 
DISL,ioos:station:DISL:DISL:1,2019-09-07T19:11:00Z,30.2513,-88.0778,32.11,11111222 
DISL,ioos:station:DISL:DISL:1,2019-09-07T20:11:00Z,30.2513,-88.0778,32.08,11111222 
DISL,ioos:station:DISL:DISL:1,2019-09-07T21:11:00Z,30.2513,-88.0778,32.29,11111222 
DISL,ioos:station:DISL:DISL:1,2019-09-07T22:11:00Z,30.2513,-88.0778,31.91,11111222 
DISL,ioos:station:DISL:DISL:1,2019-09-07T23:11:00Z,30.2513,-88.0778,31.44,11111222 
DISL,ioos:station:DISL:DISL:1,2019-09-07T23:41:00Z,30.2513,-88.0778,31.32,11111222 
DISL,ioos:station:DISL:DISL:1,2019-09-08T00:41:00Z,30.2513,-88.0778,30.49,11111222 
DISL,ioos:station:DISL:DISL:1,2019-09-08T01:41:00Z,30.2513,-88.0778,30.55,11111222 
DISL,ioos:station:DISL:DISL:1,2019-09-08T02:41:00Z,30.2513,-88.0778,30.44,11111222 
DISL,ioos:station:DISL:DISL:1,2019-09-08T03:41:00Z,30.2513,-88.0778,30.14,11111222 
DISL,ioos:station:DISL:DISL:1,2019-09-08T04:41:00Z,30.2513,-88.0778,30.17,11111222 
DISL,ioos:station:DISL:DISL:1,2019-09-08T05:41:00Z,30.2513,-88.0778,30.27,11111222 
DISL,ioos:station:DISL:DISL:1,2019-09-08T06:41:00Z,30.2513,-88.0778,30.0,11111222 
DISL,ioos:station:DISL:DISL:1,2019-09-08T07:41:00Z,30.2513,-88.0778,29.83,11111222 
DISL,ioos:station:DISL:DISL:1,2019-09-08T08:41:00Z,30.2513,-88.0778,29.69,11111222 
DISL,ioos:station:DISL:DISL:1,2019-09-08T09:41:00Z,30.2513,-88.0778,29.59,11111222 
DISL,ioos:station:DISL:DISL:1,2019-09-08T10:41:00Z,30.2513,-88.0778,29.39,11111222 
DISL,ioos:station:DISL:DISL:1,2019-09-08T11:41:00Z,30.2513,-88.0778,29.5,11111222 
DISL,ioos:station:DISL:DISL:1,2019-09-08T12:41:00Z,30.2513,-88.0778,30.03,11111222 
DISL,ioos:station:DISL:DISL:1,2019-09-08T13:41:00Z,30.2513,-88.0778,30.23,11111222 
DISL,ioos:station:DISL:DISL:1,2019-09-08T14:41:00Z,30.2513,-88.0778,30.43,11111222 
DISL,ioos:station:DISL:DISL:1,2019-09-08T15:41:00Z,30.2513,-88.0778,30.58,11111222 
DISL,ioos:station:DISL:DISL:1,2019-09-08T16:41:00Z,30.2513,-88.0778,30.95,11111222 
DISL,ioos:station:DISL:DISL:1,2019-09-08T17:41:00Z,30.2513,-88.0778,31.94,11111222 
DISL,ioos:station:DISL:DISL:1,2019-09-08T19:10:00Z,30.2513,-88.0778,32.88,11111222 
DISL,ioos:station:DISL:DISL:1,2019-09-08T20:10:00Z,30.2513,-88.0778,32.77,11111222 
DISL,ioos:station:DISL:DISL:1,2019-09-08T21:10:00Z,30.2513,-88.0778,32.52,11111222 
DISL,ioos:station:DISL:DISL:1,2019-09-08T22:10:00Z,30.2513,-88.0778,31.94,11111222 
DISL,ioos:station:DISL:DISL:1,2019-09-08T23:10:00Z,30.2513,-88.0778,31.33,11111222 
DISL,ioos:station:DISL:DISL:1,2019-09-08T23:40:00Z,30.2513,-88.0778,31.11,11111222 
DISL,ioos:station:DISL:DISL:1,2019-09-09T01:10:00Z,30.2513,-88.0778,30.7,11111222 
DISL,ioos:station:DISL:DISL:1,2019-09-09T02:10:00Z,30.2513,-88.0778,30.75,11111222 
DISL,ioos:station:DISL:DISL:1,2019-09-09T03:10:00Z,30.2513,-88.0778,30.61,11111222 
DISL,ioos:station:DISL:DISL:1,2019-09-09T04:10:00Z,30.2513,-88.0778,30.44,11111222 
DISL,ioos:station:DISL:DISL:1,2019-09-09T05:10:00Z,30.2513,-88.0778,30.27,11111222 
DISL,ioos:station:DISL:DISL:1,2019-09-09T06:10:00Z,30.2513,-88.0778,30.03,11111222 
DISL,ioos:station:DISL:DISL:1,2019-09-09T07:10:00Z,30.2513,-88.0778,29.93,11111222 
DISL,ioos:station:DISL:DISL:1,2019-09-09T08:10:00Z,30.2513,-88.0778,29.76,11111222 
DISL,ioos:station:DISL:DISL:1,2019-09-09T09:10:00Z,30.2513,-88.0778,29.69,11111222 
DISL,ioos:station:DISL:DISL:1,2019-09-09T10:10:00Z,30.2513,-88.0778,29.79,11111222 
DISL,ioos:station:DISL:DISL:1,2019-09-09T11:10:00Z,30.2513,-88.0778,29.62,11111222 
DISL,ioos:station:DISL:DISL:1,2019-09-09T12:10:00Z,30.2513,-88.0778,29.9,11111222 
DISL,ioos:station:DISL:DISL:1,2019-09-09T13:10:00Z,30.2513,-88.0778,30.52,11111222 
DISL,ioos:station:DISL:DISL:1,2019-09-09T14:10:00Z,30.2513,-88.0778,30.72,11111222 
DISL,ioos:station:DISL:DISL:1,2019-09-09T15:10:00Z,30.2513,-88.0778,30.87,11111222 
DISL,ioos:station:DISL:DISL:1,2019-09-09T16:10:00Z,30.2513,-88.0778,31.17,11111222 
DISL,ioos:station:DISL:DISL:1,2019-09-09T17:10:00Z,30.2513,-88.0778,30.69,11111222 
DISL,ioos:station:DISL:DISL:1,2019-09-09T18:10:00Z,30.2513,-88.0778,31.17,11111222 
DISL,ioos:station:DISL:DISL:1,2019-09-09T19:10:00Z,30.2513,-88.0778,30.87,11111222 
DISL,ioos:station:DISL:DISL:1,2019-09-09T23:10:00Z,30.2513,-88.0778,29.9,11111222 
DISL,ioos:station:DISL:DISL:1,2019-09-09T23:40:00Z,30.2513,-88.0778,29.84,11111222 
DISL,ioos:station:DISL:DISL:1,2019-09-10T01:10:00Z,30.2513,-88.0778,29.42,11111222 
DISL,ioos:station:DISL:DISL:1,2019-09-10T02:10:00Z,30.2513,-88.0778,29.18,11111222 
DISL,ioos:station:DISL:DISL:1,2019-09-10T03:10:00Z,30.2513,-88.0778,29.06,11111222 
DISL,ioos:station:DISL:DISL:1,2019-09-10T04:10:00Z,30.2513,-88.0778,28.96,11111222 
DISL,ioos:station:DISL:DISL:1,2019-09-10T05:10:00Z,30.2513,-88.0778,28.99,11111222 
DISL,ioos:station:DISL:DISL:1,2019-09-10T06:10:00Z,30.2513,-88.0778,28.99,11111222 
DISL,ioos:station:DISL:DISL:1,2019-09-10T07:10:00Z,30.2513,-88.0778,28.89,11111222 
DISL,ioos:station:DISL:DISL:1,2019-09-10T08:10:00Z,30.2513,-88.0778,28.82,11111222 
DISL,ioos:station:DISL:DISL:1,2019-09-10T09:10:00Z,30.2513,-88.0778,28.76,11111222 
DISL,ioos:station:DISL:DISL:1,2019-09-10T10:10:00Z,30.2513,-88.0778,28.79,11111222 
DISL,ioos:station:DISL:DISL:1,2019-09-10T11:10:00Z,30.2513,-88.0778,28.78,11111222 
DISL,ioos:station:DISL:DISL:1,2019-09-10T12:10:00Z,30.2513,-88.0778,28.45,11111222 
DISL,ioos:station:DISL:DISL:1,2019-09-10T13:10:00Z,30.2513,-88.0778,29.8,11111222 
DISL,ioos:station:DISL:DISL:1,2019-09-10T14:10:00Z,30.2513,-88.0778,30.04,11111222 
DISL,ioos:station:DISL:DISL:1,2019-09-10T15:10:00Z,30.2513,-88.0778,30.74,11111222 
DISL,ioos:station:DISL:DISL:1,2019-09-10T16:10:00Z,30.2513,-88.0778,29.54,11111222 
DISL,ioos:station:DISL:DISL:1,2019-09-10T17:10:00Z,30.2513,-88.0778,30.03,11111222 
DISL,ioos:station:DISL:DISL:1,2019-09-10T18:10:00Z,30.2513,-88.0778,30.02,11111222 
DISL,ioos:station:DISL:DISL:1,2019-09-10T19:10:00Z,30.2513,-88.0778,30.67,11111222 
DISL,ioos:station:DISL:DISL:1,2019-09-10T20:10:00Z,30.2513,-88.0778,30.84,11111222 
DISL,ioos:station:DISL:DISL:1,2019-09-10T21:10:00Z,30.2513,-88.0778,30.63,11111222 
DISL,ioos:station:DISL:DISL:1,2019-09-10T22:10:00Z,30.2513,-88.0778,30.36,11111222 
DISL,ioos:station:DISL:DISL:1,2019-09-10T23:10:00Z,30.2513,-88.0778,30.09,11111222 
DISL,ioos:station:DISL:DISL:1,2019-09-10T23:40:00Z,30.2513,-88.0778,29.87,11111222 
DISL,ioos:station:DISL:DISL:1,2019-09-11T01:10:00Z,30.2513,-88.0778,29.45,11111222 
DISL,ioos:station:DISL:DISL:1,2019-09-11T02:10:00Z,30.2513,-88.0778,29.29,11111222 
DISL,ioos:station:DISL:DISL:1,2019-09-11T03:10:00Z,30.2513,-88.0778,29.23,11111222 
DISL,ioos:station:DISL:DISL:1,2019-09-11T03:40:00Z,30.2513,-88.0778,29.23,11111222 
DISL,ioos:station:DISL:DISL:1,2019-09-11T05:10:00Z,30.2513,-88.0778,28.99,11111222 
DISL,ioos:station:DISL:DISL:1,2019-09-11T06:10:00Z,30.2513,-88.0778,28.68,11111222 
DISL,ioos:station:DISL:DISL:1,2019-09-11T07:10:00Z,30.2513,-88.0778,28.93,11111222 
DISL,ioos:station:DISL:DISL:1,2019-09-11T08:10:00Z,30.2513,-88.0778,28.69,11111222 
DISL,ioos:station:DISL:DISL:1,2019-09-11T09:10:00Z,30.2513,-88.0778,28.62,11111222 
DISL,ioos:station:DISL:DISL:1,2019-09-11T10:10:00Z,30.2513,-88.0778,28.28,11111222 
DISL,ioos:station:DISL:DISL:1,2019-09-11T11:10:00Z,30.2513,-88.0778,28.21,11111222 
DISL,ioos:station:DISL:DISL:1,2019-09-11T12:10:00Z,30.2513,-88.0778,28.07,11111222 
DISL,ioos:station:DISL:DISL:1,2019-09-11T13:10:00Z,30.2513,-88.0778,28.23,11111222 
DISL,ioos:station:DISL:DISL:1,2019-09-11T14:10:00Z,30.2513,-88.0778,28.29,11111222 
DISL,ioos:station:DISL:DISL:1,2019-09-11T15:10:00Z,30.2513,-88.0778,28.87,11111222 
DISL,ioos:station:DISL:DISL:1,2019-09-11T16:10:00Z,30.2513,-88.0778,29.19,11111222 
DISL,ioos:station:DISL:DISL:1,2019-09-11T17:10:00Z,30.2513,-88.0778,29.77,11111222 
DISL,ioos:station:DISL:DISL:1,2019-09-11T18:10:00Z,30.2513,-88.0778,29.84,11111222 
DISL,ioos:station:DISL:DISL:1,2019-09-11T19:10:00Z,30.2513,-88.0778,30.33,11111222 
DISL,ioos:station:DISL:DISL:1,2019-09-11T20:10:00Z,30.2513,-88.0778,30.46,11111222 
DISL,ioos:station:DISL:DISL:1,2019-09-11T21:10:00Z,30.2513,-88.0778,30.46,11111222 
DISL,ioos:station:DISL:DISL:1,2019-09-11T22:10:00Z,30.2513,-88.0778,30.22,11111222 
DISL,ioos:station:DISL:DISL:1,2019-09-11T23:10:00Z,30.2513,-88.0778,29.94,11111222 
DISL,ioos:station:DISL:DISL:1,2019-09-12T00:10:00Z,30.2513,-88.0778,29.72,11111222 
DISL,ioos:station:DISL:DISL:1,2019-09-12T01:10:00Z,30.2513,-88.0778,29.59,11111222 
DISL,ioos:station:DISL:DISL:1,2019-09-12T02:10:00Z,30.2513,-88.0778,29.53,11111222 
DISL,ioos:station:DISL:DISL:1,2019-09-12T03:10:00Z,30.2513,-88.0778,29.27,11111222 
DISL,ioos:station:DISL:DISL:1,2019-09-12T04:10:00Z,30.2513,-88.0778,29.03,11111222 
DISL,ioos:station:DISL:DISL:1,2019-09-12T05:10:00Z,30.2513,-88.0778,28.34,11111222 
DISL,ioos:station:DISL:DISL:1,2019-09-12T06:10:00Z,30.2513,-88.0778,28.35,11111222 
DISL,ioos:station:DISL:DISL:1,2019-09-12T07:10:00Z,30.2513,-88.0778,28.61,11111222 
DISL,ioos:station:DISL:DISL:1,2019-09-12T08:10:00Z,30.2513,-88.0778,28.7,11111222 
DISL,ioos:station:DISL:DISL:1,2019-09-12T09:10:00Z,30.2513,-88.0778,28.31,11111222 
DISL,ioos:station:DISL:DISL:1,2019-09-12T10:10:00Z,30.2513,-88.0778,28.38,11111222 
DISL,ioos:station:DISL:DISL:1,2019-09-12T11:10:00Z,30.2513,-88.0778,28.69,11111222 
DISL,ioos:station:DISL:DISL:1,2019-09-12T12:10:00Z,30.2513,-88.0778,28.58,11111222 
DISL,ioos:station:DISL:DISL:1,2019-09-12T12:40:00Z,30.2513,-88.0778,28.37,11111222 
DISL,ioos:station:DISL:DISL:1,2019-09-12T14:10:00Z,30.2513,-88.0778,28.73,11111222 
DISL,ioos:station:DISL:DISL:1,2019-09-12T15:10:00Z,30.2513,-88.0778,29.02,11111222 
DISL,ioos:station:DISL:DISL:1,2019-09-12T16:10:00Z,30.2513,-88.0778,29.77,11111222 
DISL,ioos:station:DISL:DISL:1,2019-09-13T20:10:00Z,30.2513,-88.0778,30.4,11111222 
DISL,ioos:station:DISL:DISL:1,2019-09-13T21:10:00Z,30.2513,-88.0778,30.43,11111222 
DISL,ioos:station:DISL:DISL:1,2019-09-13T22:10:00Z,30.2513,-88.0778,30.43,11111222 
DISL,ioos:station:DISL:DISL:1,2019-09-13T23:10:00Z,30.2513,-88.0778,30.19,11111222 
DISL,ioos:station:DISL:DISL:1,2019-09-13T23:40:00Z,30.2513,-88.0778,29.87,11111222 
DISL,ioos:station:DISL:DISL:1,2019-09-14T00:40:00Z,30.2513,-88.0778,29.62,11111222 
DISL,ioos:station:DISL:DISL:1,2019-09-14T01:40:00Z,30.2513,-88.0778,29.39,11111222 
DISL,ioos:station:DISL:DISL:1,2019-09-14T02:40:00Z,30.2513,-88.0778,29.57,11111222 
DISL,ioos:station:DISL:DISL:1,2019-09-14T03:40:00Z,30.2513,-88.0778,29.58,11111222 
DISL,ioos:station:DISL:DISL:1,2019-09-14T04:40:00Z,30.2513,-88.0778,29.41,11111222 
DISL,ioos:station:DISL:DISL:1,2019-09-14T05:40:00Z,30.2513,-88.0778,29.17,11111222 
DISL,ioos:station:DISL:DISL:1,2019-09-14T06:40:00Z,30.2513,-88.0778,28.86,11111222 